This is the latest recevied weather packets stored in our database for station/object NY3Q. If no packets are shown the sender has not sent any weather packets the latest 10 day(s).
| Time | Temp. | Humidity | Pressure | Rain* | Wind** | Luminosity | Snow |
|---|---|---|---|---|---|---|---|
| 1778027167 | 21.67° C | 66% | 1015.9 hPa | 0 mm | - | 0 W/m² | - |
| 1778026863 | 21.67° C | 65% | 1015.7 hPa | 0 mm | - | 0 W/m² | - |
| 1778026559 | 21.67° C | 65% | 1015.6 hPa | 0 mm | - | 1 W/m² | - |
| 1778026256 | 21.67° C | 64% | 1015.7 hPa | 0 mm | - | 1 W/m² | - |
| 1778025954 | 22.22° C | 64% | 1015.7 hPa | 0 mm | - | 2 W/m² | - |
| 1778025651 | 22.22° C | 63% | 1015.7 hPa | 0 mm | - | 5 W/m² | - |
| 1778025349 | 22.22° C | 62% | 1015.6 hPa | 0 mm | - | 8 W/m² | - |
| 1778025046 | 22.78° C | 62% | 1015.7 hPa | 0 mm | - | 11 W/m² | - |
| 1778024742 | 22.78° C | 62% | 1015.5 hPa | 0 mm | - | 15 W/m² | - |
| 1778024439 | 22.78° C | 63% | 1015.8 hPa | 0 mm | - | 18 W/m² | - |
| 1778024137 | 22.78° C | 62% | 1015.8 hPa | 0 mm | - | 19 W/m² | - |
| 1778023834 | 23.33° C | 61% | 1015.7 hPa | 0 mm | - | 19 W/m² | - |
| 1778023532 | 23.89° C | 60% | 1015.5 hPa | 0 mm | - | 20 W/m² | - |
| 1778023229 | 23.89° C | 60% | 1015.6 hPa | 0 mm | - | 28 W/m² | - |
| 1778022926 | 23.89° C | 59% | 1015.8 hPa | 0 mm | - | 39 W/m² | - |
| 1778022625 | 23.89° C | 60% | 1015.6 hPa | 0 mm | - | 60 W/m² | - |
| 1778022322 | 23.89° C | 59% | 1015.5 hPa | 0 mm | - | 72 W/m² | - |
| 1778022018 | 24.44° C | 59% | 1015.7 hPa | 0 mm | - | 83 W/m² | - |
| 1778021715 | 24.44° C | 58% | 1015.7 hPa | 0 mm | - | 69 W/m² | - |
| 1778021411 | 25° C | 57% | 1015.8 hPa | 0 mm | - | 103 W/m² | - |
| 1778021108 | 25° C | 57% | 1015.7 hPa | 0 mm | - | 122 W/m² | - |
| 1778020805 | 25° C | 57% | 1015.7 hPa | 0 mm | - | 135 W/m² | - |
| 1778020502 | 25.56° C | 55% | 1015.5 hPa | 0 mm | - | 146 W/m² | - |
| 1778020198 | 25.56° C | 55% | 1015.6 hPa | 0 mm | - | 163 W/m² | - |
| 1778019895 | 25.56° C | 54% | 1015.8 hPa | 0 mm | - | 181 W/m² | - |
* Rain latest hour (hover to see other rain measurements)
** Current wind speed in m/s (hover to see current wind gust speed)